Location: Unspecified
(43.4354°N, 0.0000°E)
Time: 06:27:11
(UTC+00:00)

S-56A Canister/Altair - Pass Details

Date: 02 July 2019
Orbit: 632 x 2500 km, 38.9° (Epoch: 17 July)

Event Time Altitude Azimuth Distance (km) Brightness Sun altitude
Rises 14:08:19 0° 255° (WSW) 6,008 12.6 57.3°
Reaches altitude 10° 14:12:33 10° 253° (WSW) 4,839 12.3 56.6°
Maximum altitude 14:25:31 68° 175° (S) 1,862 10.6 54.5°
Drops below altitude 10° 14:34:12 10° 95° (E) 3,349 10.6 53.0°
Sets 14:36:38 0° 92° (E) 4,105 10.9 52.6°
